QPF
0.00 0.00 0.00 0.00 0.00 0.00 0.00 0.00 0.00 0.00 0.00 0.00 0.00 0.00 0.00 0.00 0.00 0.00 0.00 0.00 0.00 0.00 0.00 0.00 0.00 0.00 0.00 0.00 0.00 0.00 0.00 0.00 0.00 0.00 0.00 0.00 0.00 0.00 0.00 0.00 0.00 0.00 0.00
0.00 0.00 0.00 0.00 0.00 0.00 0.00 0.00 0.00 0.00 0.00 0.00 0.00 0.00 0.00 0.00 0.00 0.00 0.00 0.00 0.00 0.00 0.00 0.00 0.00 0.00 0.00 0.00 0.00 0.00 0.00 0.00 0.00 0.00 0.00 0.00 0.00 0.00 0.00 0.00 0.00 0.00 0.00
0.00 0.00 0.00 0.00 0.00 0.00 0.00 0.00 0.00 0.00 0.00 0.00 0.00 0.00 0.00 0.00 0.00 0.00 0.00 0.00 0.00 0.00 0.00 0.00 0.00 0.00 0.00 0.00 0.00 0.00 0.00 0.00 0.00 0.01 0.00 0.00 0.00 0.00 0.01 0.01 0.01 0.01 0.00
0.00 0.00 0.00 0.00 0.00 0.00 0.00 0.00 0.00 0.00 0.00 0.00 0.00 0.00 0.00 0.00 0.00 0.00 0.00 0.00 0.00 0.00 0.00 0.00 0.00 0.00 0.00 0.00 0.00 0.00 0.00 0.01 0.01 0.01 0.01 0.00 0.00 0.00 0.01 0.01 0.01 0.00 0.00
0.00 0.00 0.00 0.00 0.00 0.00 0.00 0.00 0.00 0.00 0.00 0.00 0.00 0.00 0.00 0.00 0.00 0.00 0.00 0.00 0.00 0.00 0.00 0.00 0.00 0.00 0.00 0.00 0.00 0.00 0.01 0.01 0.02 0.02 0.01 0.01 0.01 0.02 0.02 0.01 0.01 0.01 0.01
0.00 0.00 0.00 0.00 0.00 0.00 0.00 0.00 0.00 0.00 0.00 0.00 0.00 0.00 0.00 0.00 0.00 0.00 0.00 0.00 0.00 0.00 0.00 0.00 0.00 0.00 0.00 0.01 0.01 0.01 0.01 0.02 0.02 0.02 0.02 0.02 0.01 0.01 0.01 0.02 0.02 0.03 0.02
0.00 0.00 0.00 0.00 0.00 0.00 0.00 0.00 0.00 0.00 0.00 0.00 0.00 0.00 0.00 0.00 0.00 0.01 0.01 0.01 0.00 0.00 0.00 0.00 0.00 0.01 0.01 0.01 0.01 0.02 0.03 0.04 0.03 0.03 0.02 0.01 0.01 0.01 0.02 0.03 0.03 0.02 0.01
0.00 0.00 0.00 0.00 0.00 0.00 0.00 0.00 0.00 0.00 0.00 0.00 0.00 0.00 0.00 0.00 0.00 0.01 0.01 0.01 0.01 0.00 0.00 0.00 0.01 0.01 0.01 0.01 0.01 0.02 0.02 0.03 0.05 0.06 0.06 0.02 0.01 0.01 0.02 0.02 0.02 0.03 0.02
0.00 0.00 0.00 0.00 0.00 0.00 0.00 0.00 0.00 0.00 0.00 0.00 0.00 0.00 0.00 0.00 0.00 0.01 0.01 0.01 0.00 0.00 0.00 0.00 0.01 0.01 0.01 0.02 0.02 0.02 0.01 0.01 0.02 0.05 0.07 0.06 0.04 0.03 0.03 0.06 0.07 0.08 0.05
0.00 0.00 0.00 0.00 0.00 0.00 0.00 0.00 0.00 0.00 0.00 0.00 0.00 0.00 0.00 0.00 0.00 0.01 0.01 0.01 0.01 0.00 0.00 0.00 0.01 0.01 0.01 0.02 0.03 0.03 0.02 0.01 0.01 0.02 0.04 0.07 0.08 0.08 0.09 0.10 0.08 0.06 0.04
0.00 0.00 0.00 0.00 0.00 0.00 0.00 0.00 0.00 0.00 0.01 0.00 0.00 0.00 0.00 0.00 0.00 0.01 0.01 0.01 0.01 0.02 0.01 0.01 0.01 0.01 0.02 0.03 0.03 0.03 0.02 0.01 0.02 0.02 0.02 0.03 0.05 0.07 0.08 0.12 0.12 0.07 0.04
0.00 0.00 0.00 0.00 0.00 0.00 0.00 0.00 0.00 0.01 0.01 0.01 0.01 0.01 0.00 0.00 0.00 0.01 0.02 0.02 0.03 0.03 0.02 0.01 0.01 0.01 0.02 0.03 0.04 0.04 0.04 0.04 0.06 0.04 0.03 0.02 0.02 0.02 0.02 0.04 0.07 0.07 0.04
0.00 0.00 0.00 0.00 0.00 0.00 0.00 0.01 0.01 0.01 0.01 0.01 0.01 0.01 0.01 0.01 0.01 0.01 0.02 0.02 0.03 0.03 0.02 0.01 0.02 0.02 0.02 0.02 0.03 0.04 0.04 0.05 0.07 0.06 0.03 0.01 0.00 0.01 0.01 0.02 0.03 0.05 0.06
0.00 0.00 0.00 0.00 0.00 0.00 0.01 0.01 0.01 0.01 0.02 0.02 0.02 0.02 0.02 0.01 0.01 0.01 0.01 0.02 0.02 0.02 0.01 0.02 0.02 0.02 0.02 0.02 0.02 0.02 0.03 0.05 0.05 0.05 0.02 0.01 0.01 0.02 0.02 0.02 0.03 0.03 0.05
0.00 0.00 0.00 0.00 0.00 0.01 0.01 0.01 0.01 0.01 0.02 0.03 0.04 0.04 0.03 0.03 0.02 0.03 0.03 0.03 0.03 0.03 0.03 0.03 0.03 0.03 0.03 0.03 0.02 0.02 0.02 0.04 0.05 0.05 0.04 0.03 0.02 0.02 0.02 0.02 0.02 0.03 0.03
0.00 0.00 0.00 0.01 0.01 0.01 0.01 0.01 0.00 0.01 0.01 0.01 0.01 0.02 0.02 0.02 0.03 0.03 0.03 0.03 0.03 0.03 0.05 0.05 0.03 0.03 0.03 0.02 0.02 0.02 0.02 0.02 0.02 0.03 0.04 0.03 0.02 0.02 0.02 0.02 0.02 0.02 0.02
0.01 0.01 0.01 0.01 0.01 0.01 0.01 0.02 0.01 0.01 0.00 0.00 0.01 0.01 0.01 0.02 0.02 0.02 0.02 0.02 0.02 0.03 0.04 0.04 0.03 0.02 0.02 0.02 0.02 0.02 0.02 0.01 0.02 0.02 0.03 0.03 0.02 0.02 0.02 0.02 0.02 0.02 0.01
0.01 0.01 0.01 0.01 0.02 0.02 0.02 0.02 0.01 0.01 0.01 0.00 0.00 0.01 0.01 0.01 0.01 0.01 0.02 0.02 0.02 0.01 0.02 0.02 0.02 0.01 0.02 0.02 0.02 0.02 0.02 0.02 0.02 0.03 0.02 0.02 0.02 0.02 0.02 0.02 0.01 0.01 0.01
0.01 0.01 0.01 0.01 0.01 0.01 0.01 0.01 0.01 0.01 0.01 0.01 0.01 0.00 0.00 0.01 0.01 0.01 0.01 0.02 0.02 0.02 0.01 0.01 0.01 0.02 0.02 0.02 0.01 0.02 0.02 0.02 0.02 0.02 0.02 0.02 0.02 0.03 0.02 0.02 0.01 0.01 0.02
0.01 0.01 0.01 0.02 0.02 0.01 0.01 0.01 0.01 0.01 0.01 0.01 0.01 0.01 0.01 0.01 0.01 0.01 0.01 0.01 0.02 0.02 0.01 0.02 0.01 0.02 0.02 0.02 0.02 0.02 0.02 0.02 0.02 0.02 0.02 0.02 0.02 0.03 0.03 0.02 0.02 0.02 0.02
0.01 0.01 0.01 0.02 0.02 0.02 0.02 0.01 0.02 0.02 0.02 0.02 0.01 0.01 0.02 0.03 0.03 0.02 0.01 0.01 0.02 0.02 0.02 0.02 0.02 0.02 0.01 0.01 0.02 0.02 0.02 0.01 0.01 0.02 0.02 0.02 0.02 0.03 0.03 0.03 0.02 0.02 0.02
0.01 0.01 0.02 0.02 0.02 0.02 0.01 0.01 0.02 0.02 0.02 0.02 0.01 0.01 0.01 0.02 0.02 0.02 0.01 0.01 0.01 0.02 0.02 0.02 0.02 0.01 0.01 0.01 0.01 0.01 0.01 0.01 0.01 0.02 0.02 0.02 0.02 0.02 0.02 0.03 0.03 0.02 0.02
0.02 0.03 0.02 0.02 0.01 0.01 0.01 0.01 0.01 0.02 0.02 0.02 0.02 0.02 0.02 0.02 0.02 0.01 0.01 0.01 0.01 0.01 0.01 0.02 0.02 0.01 0.01 0.01 0.01 0.02 0.02 0.01 0.01 0.02 0.02 0.02 0.02 0.02 0.03 0.03 0.03 0.03 0.03
0.03 0.02 0.02 0.02 0.01 0.01 0.01 0.01 0.01 0.02 0.02 0.02 0.02 0.02 0.02 0.02 0.01 0.01 0.01 0.01 0.01 0.01 0.01 0.02 0.02 0.01 0.01 0.01 0.01 0.02 0.02 0.02 0.02 0.03 0.03 0.03 0.03 0.03 0.03 0.03 0.02 0.02 0.02
0.02 0.02 0.02 0.02 0.02 0.02 0.02 0.02 0.01 0.02 0.02 0.02 0.02 0.02 0.01 0.01 0.01 0.01 0.01 0.01 0.01 0.01 0.01 0.01 0.01 0.01 0.01 0.01 0.01 0.01 0.01 0.02 0.03 0.04 0.05 0.06 0.05 0.03 0.03 0.03 0.03 0.03 0.03
0.01 0.02 0.02 0.02 0.02 0.02 0.02 0.02 0.02 0.02 0.02 0.02 0.02 0.02 0.01 0.01 0.01 0.01 0.01 0.01 0.01 0.01 0.01 0.01 0.01 0.01 0.01 0.01 0.01 0.01 0.02 0.02 0.03 0.04 0.05 0.07 0.06 0.05 0.05 0.05 0.05 0.04 0.04
MSLP
1016.85 1016.46 1016.06 1015.60 1015.08 1014.49 1013.85 1013.21 1012.59 1012.02 1011.52 1011.09 1010.72 1010.40 1010.11 1009.82 1009.54 1009.28 1009.05 1008.87 1008.77 1008.76 1008.84 1008.99 1009.19 1009.40 1009.59 1009.72 1009.78 1009.78 1009.72 1009.63 1009.54 1009.49 1009.48 1009.55 1009.66 1009.83 1010.01 1010.20 1010.36 1010.48 1010.57
1016.71 1016.27 1015.80 1015.29 1014.71 1014.07 1013.40 1012.72 1012.07 1011.46 1010.92 1010.44 1010.02 1009.63 1009.26 1008.90 1008.53 1008.18 1007.87 1007.60 1007.42 1007.33 1007.33 1007.42 1007.57 1007.76 1007.93 1008.08 1008.17 1008.20 1008.19 1008.16 1008.13 1008.13 1008.18 1008.29 1008.46 1008.67 1008.90 1009.14 1009.35 1009.52 1009.65
1016.60 1016.11 1015.59 1015.01 1014.37 1013.68 1012.95 1012.22 1011.52 1010.86 1010.26 1009.73 1009.25 1008.80 1008.37 1007.94 1007.51 1007.10 1006.72 1006.40 1006.15 1006.00 1005.94 1005.97 1006.06 1006.20 1006.34 1006.47 1006.56 1006.61 1006.63 1006.63 1006.65 1006.70 1006.80 1006.96 1007.18 1007.45 1007.74 1008.03 1008.30 1008.53 1008.72
1016.52 1015.98 1015.39 1014.74 1014.03 1013.26 1012.47 1011.67 1010.90 1010.18 1009.53 1008.93 1008.39 1007.89 1007.41 1006.94 1006.49 1006.04 1005.63 1005.27 1004.99 1004.78 1004.67 1004.64 1004.67 1004.74 1004.83 1004.91 1004.98 1005.02 1005.04 1005.07 1005.11 1005.19 1005.34 1005.54 1005.81 1006.13 1006.48 1006.84 1007.18 1007.48 1007.73
1016.43 1015.82 1015.16 1014.43 1013.63 1012.78 1011.91 1011.04 1010.21 1009.42 1008.71 1008.06 1007.47 1006.93 1006.42 1005.93 1005.46 1005.01 1004.59 1004.22 1003.91 1003.67 1003.50 1003.41 1003.37 1003.37 1003.38 1003.41 1003.42 1003.43 1003.43 1003.46 1003.51 1003.62 1003.79 1004.03 1004.34 1004.71 1005.12 1005.53 1005.94 1006.32 1006.65
1016.27 1015.60 1014.85 1014.03 1013.14 1012.21 1011.27 1010.33 1009.44 1008.61 1007.85 1007.16 1006.54 1005.97 1005.45 1004.95 1004.48 1004.03 1003.61 1003.22 1002.89 1002.62 1002.40 1002.23 1002.11 1002.02 1001.96 1001.90 1001.86 1001.82 1001.80 1001.81 1001.87 1001.98 1002.17 1002.44 1002.78 1003.19 1003.64 1004.11 1004.59 1005.04 1005.45
1016.02 1015.27 1014.43 1013.53 1012.57 1011.57 1010.57 1009.59 1008.65 1007.79 1007.00 1006.29 1005.65 1005.07 1004.53 1004.03 1003.56 1003.10 1002.67 1002.27 1001.91 1001.58 1001.30 1001.05 1000.84 1000.66 1000.51 1000.38 1000.26 1000.18 1000.13 1000.13 1000.19 1000.31 1000.52 1000.81 1001.17 1001.60 1002.09 1002.60 1003.14 1003.66 1004.16
1015.66 1014.82 1013.91 1012.93 1011.91 1010.88 1009.85 1008.85 1007.91 1007.04 1006.25 1005.53 1004.89 1004.29 1003.75 1003.23 1002.73 1002.25 1001.79 1001.34 1000.92 1000.53 1000.16 999.83 999.52 999.25 999.01 998.81 998.64 998.52 998.45 998.45 998.51 998.65 998.87 999.18 999.56 1000.01 1000.51 1001.06 1001.64 1002.22 1002.79
1015.19 1014.28 1013.31 1012.29 1011.24 1010.19 1009.17 1008.19 1007.27 1006.42 1005.65 1004.94 1004.29 1003.68 1003.10 1002.55 1002.01 1001.48 1000.95 1000.44 999.94 999.45 998.99 998.56 998.16 997.80 997.49 997.22 997.02 996.88 996.81 996.81 996.89 997.05 997.30 997.61 998.01 998.47 998.98 999.55 1000.15 1000.77 1001.40
1014.65 1013.69 1012.69 1011.65 1010.60 1009.57 1008.59 1007.65 1006.77 1005.97 1005.21 1004.52 1003.86 1003.23 1002.61 1002.01 1001.40 1000.79 1000.19 999.58 998.98 998.40 997.84 997.31 996.82 996.38 996.00 995.70 995.47 995.32 995.26 995.28 995.39 995.58 995.84 996.17 996.57 997.03 997.55 998.11 998.72 999.37 1000.03
1014.10 1013.11 1012.09 1011.06 1010.04 1009.05 1008.12 1007.24 1006.42 1005.66 1004.94 1004.25 1003.58 1002.92 1002.26 1001.59 1000.90 1000.21 999.51 998.81 998.12 997.43 996.78 996.17 995.60 995.10 994.67 994.33 994.09 993.94 993.89 993.93 994.06 994.27 994.55 994.89 995.28 995.73 996.24 996.79 997.40 998.05 998.73
1013.57 1012.57 1011.55 1010.54 1009.57 1008.64 1007.76 1006.95 1006.18 1005.46 1004.77 1004.09 1003.41 1002.72 1002.01 1001.27 1000.52 999.75 998.97 998.19 997.41 996.66 995.93 995.25 994.63 994.08 993.61 993.25 992.98 992.83 992.78 992.82 992.95 993.16 993.43 993.76 994.14 994.57 995.06 995.59 996.18 996.82 997.51
1013.08 1012.09 1011.09 1010.11 1009.18 1008.30 1007.49 1006.73 1006.01 1005.33 1004.66 1003.98 1003.29 1002.57 1001.83 1001.05 1000.25 999.44 998.61 997.78 996.95 996.15 995.39 994.66 994.00 993.41 992.92 992.52 992.22 992.04 991.95 991.97 992.06 992.24 992.48 992.78 993.12 993.52 993.97 994.48 995.05 995.68 996.36
1012.64 1011.66 1010.68 1009.74 1008.85 1008.02 1007.25 1006.53 1005.85 1005.20 1004.55 1003.88 1003.19 1002.47 1001.71 1000.92 1000.11 999.28 998.44 997.61 996.78 995.98 995.20 994.47 993.79 993.17 992.63 992.18 991.83 991.58 991.43 991.37 991.39 991.49 991.66 991.89 992.19 992.54 992.95 993.43 993.98 994.60 995.28
1012.24 1011.26 1010.31 1009.39 1008.53 1007.73 1007.00 1006.32 1005.67 1005.04 1004.41 1003.76 1003.08 1002.37 1001.63 1000.87 1000.09 999.29 998.50 997.70 996.91 996.14 995.39 994.66 993.97 993.33 992.74 992.23 991.79 991.44 991.17 990.99 990.89 990.88 990.94 991.08 991.29 991.58 991.95 992.40 992.93 993.54 994.23
1011.83 1010.87 1009.93 1009.03 1008.20 1007.43 1006.72 1006.07 1005.45 1004.84 1004.23 1003.61 1002.97 1002.30 1001.61 1000.90 1000.18 999.46 998.74 998.02 997.30 996.59 995.88 995.18 994.49 993.82 993.18 992.58 992.03 991.54 991.13 990.80 990.54 990.38 990.30 990.32 990.44 990.65 990.96 991.38 991.89 992.51 993.21
1011.39 1010.44 1009.52 1008.65 1007.84 1007.09 1006.42 1005.79 1005.20 1004.62 1004.05 1003.47 1002.87 1002.26 1001.63 1001.00 1000.37 999.74 999.11 998.48 997.85 997.21 996.56 995.89 995.20 994.51 993.81 993.12 992.45 991.82 991.25 990.74 990.32 989.98 989.75 989.64 989.64 989.77 990.02 990.41 990.91 991.53 992.25
1010.91 1009.97 1009.07 1008.23 1007.45 1006.74 1006.09 1005.50 1004.94 1004.41 1003.88 1003.35 1002.81 1002.26 1001.71 1001.16 1000.62 1000.08 999.54 999.01 998.46 997.89 997.29 996.65 995.97 995.25 994.50 993.73 992.96 992.20 991.47 990.80 990.21 989.71 989.33 989.08 988.97 989.01 989.21 989.55 990.04 990.66 991.40
1010.37 1009.47 1008.60 1007.79 1007.05 1006.38 1005.77 1005.22 1004.71 1004.22 1003.74 1003.26 1002.78 1002.30 1001.82 1001.34 1000.88 1000.41 999.96 999.49 999.01 998.50 997.95 997.34 996.67 995.94 995.16 994.33 993.47 992.61 991.77 990.97 990.24 989.61 989.10 988.73 988.52 988.48 988.61 988.91 989.38 990.00 990.75
1009.81 1008.93 1008.11 1007.34 1006.65 1006.02 1005.47 1004.97 1004.50 1004.06 1003.63 1003.21 1002.78 1002.35 1001.93 1001.51 1001.10 1000.69 1000.28 999.86 999.43 998.96 998.43 997.85 997.20 996.48 995.69 994.84 993.94 993.03 992.12 991.24 990.43 989.70 989.10 988.64 988.35 988.24 988.31 988.57 989.01 989.61 990.35
1009.22 1008.39 1007.61 1006.89 1006.25 1005.68 1005.17 1004.72 1004.30 1003.91 1003.52 1003.14 1002.76 1002.38 1001.99 1001.61 1001.23 1000.85 1000.47 1000.07 999.65 999.20 998.70 998.14 997.52 996.82 996.05 995.21 994.33 993.42 992.51 991.61 990.77 990.01 989.36 988.85 988.50 988.33 988.35 988.57 988.96 989.53 990.25
1008.64 1007.86 1007.12 1006.45 1005.85 1005.33 1004.86 1004.45 1004.07 1003.71 1003.37 1003.03 1002.69 1002.33 1001.98 1001.61 1001.25 1000.87 1000.49 1000.10 999.69 999.24 998.75 998.21 997.61 996.95 996.22 995.44 994.61 993.76 992.89 992.03 991.22 990.48 989.83 989.31 988.94 988.74 988.73 988.89 989.25 989.78 990.46
1008.08 1007.34 1006.64 1006.00 1005.43 1004.93 1004.49 1004.10 1003.76 1003.43 1003.12 1002.81 1002.50 1002.18 1001.84 1001.49 1001.13 1000.76 1000.37 999.97 999.54 999.08 998.59 998.06 997.49 996.87 996.20 995.49 994.75 993.98 993.20 992.43 991.69 991.01 990.42 989.93 989.58 989.38 989.34 989.48 989.79 990.27 990.90
1007.55 1006.83 1006.15 1005.53 1004.97 1004.47 1004.04 1003.66 1003.33 1003.02 1002.74 1002.46 1002.18 1001.89 1001.58 1001.25 1000.90 1000.53 1000.13 999.70 999.26 998.78 998.28 997.75 997.19 996.60 995.99 995.35 994.69 994.02 993.35 992.69 992.07 991.49 990.98 990.56 990.25 990.08 990.05 990.17 990.45 990.88 991.46
1007.04 1006.33 1005.65 1005.02 1004.45 1003.94 1003.49 1003.11 1002.78 1002.49 1002.22 1001.98 1001.73 1001.48 1001.21 1000.91 1000.57 1000.21 999.80 999.36 998.88 998.38 997.85 997.30 996.73 996.15 995.57 994.98 994.40 993.82 993.26 992.72 992.21 991.75 991.35 991.03 990.80 990.68 990.68 990.81 991.07 991.47 991.99
1006.54 1005.83 1005.14 1004.48 1003.88 1003.34 1002.87 1002.46 1002.13 1001.84 1001.60 1001.39 1001.19 1000.98 1000.75 1000.49 1000.18 999.83 999.42 998.96 998.45 997.90 997.33 996.73 996.13 995.53 994.95 994.38 993.84 993.33 992.86 992.42 992.03 991.69 991.41 991.20 991.07 991.03 991.08 991.25 991.52 991.89 992.37
Thickness
5547 5543 5539 5534 5530 5525 5519 5515 5510 5506 5501 5496 5492 5487 5483 5478 5473 5467 5465 5461 5456 5455 5451 5447 5447 5442 5437 5434 5429 5426 5423 5420 5428 5450 5439 5436 5431 5429 5429 5427 5425 5424 5423
5532 5528 5523 5519 5513 5508 5503 5498 5492 5487 5482 5476 5472 5468 5463 5459 5454 5448 5446 5443 5439 5438 5436 5431 5432 5427 5424 5421 5417 5415 5414 5411 5411 5426 5427 5419 5417 5416 5413 5411 5411 5409 5407
5517 5512 5507 5502 5496 5490 5485 5479 5473 5467 5463 5457 5451 5447 5443 5439 5435 5430 5427 5425 5423 5422 5420 5417 5417 5412 5411 5409 5406 5405 5404 5402 5401 5406 5415 5407 5404 5401 5397 5395 5395 5394 5393
5502 5495 5490 5484 5478 5472 5466 5460 5455 5449 5444 5439 5434 5429 5425 5421 5417 5413 5409 5408 5407 5407 5406 5404 5403 5400 5399 5398 5395 5396 5393 5391 5390 5392 5399 5395 5390 5387 5383 5382 5379 5377 5377
5485 5479 5473 5468 5461 5454 5448 5443 5437 5431 5426 5421 5417 5413 5408 5403 5400 5396 5395 5394 5394 5394 5393 5392 5391 5390 5390 5388 5387 5386 5383 5381 5380 5381 5385 5383 5380 5374 5374 5371 5368 5365 5364
5468 5462 5457 5450 5444 5438 5432 5427 5421 5416 5411 5405 5401 5397 5394 5391 5389 5387 5386 5386 5385 5384 5383 5382 5381 5380 5381 5382 5384 5383 5379 5374 5373 5372 5374 5374 5374 5368 5362 5358 5355 5352 5353
5452 5446 5440 5433 5428 5423 5417 5411 5406 5401 5397 5392 5388 5384 5383 5381 5378 5378 5378 5377 5377 5376 5374 5373 5373 5373 5373 5372 5373 5375 5375 5375 5371 5366 5366 5367 5363 5359 5352 5348 5345 5344 5345
5437 5431 5424 5418 5413 5408 5402 5396 5392 5387 5384 5381 5379 5376 5373 5373 5370 5370 5370 5369 5369 5368 5366 5364 5363 5363 5363 5362 5361 5362 5363 5364 5363 5362 5361 5358 5353 5348 5344 5341 5337 5334 5333
5422 5417 5410 5403 5398 5394 5389 5384 5380 5376 5375 5372 5370 5367 5365 5365 5363 5362 5362 5362 5361 5360 5358 5356 5354 5355 5356 5356 5355 5354 5354 5354 5353 5353 5353 5350 5346 5341 5335 5329 5325 5323 5323
5409 5404 5397 5389 5383 5379 5376 5373 5370 5366 5365 5364 5363 5360 5357 5357 5357 5356 5356 5354 5354 5354 5352 5350 5350 5349 5350 5350 5348 5346 5346 5345 5342 5341 5341 5341 5338 5334 5331 5326 5321 5317 5315
5397 5391 5385 5378 5371 5367 5366 5363 5359 5358 5357 5356 5355 5355 5351 5350 5351 5350 5349 5347 5346 5346 5346 5345 5343 5344 5344 5344 5343 5340 5340 5338 5334 5332 5330 5328 5326 5323 5321 5318 5314 5311 5308
5385 5380 5374 5369 5362 5359 5356 5355 5351 5349 5348 5349 5349 5349 5347 5344 5343 5343 5344 5343 5342 5340 5340 5338 5337 5338 5339 5338 5336 5336 5334 5332 5327 5324 5321 5319 5316 5313 5311 5308 5305 5301 5299
5373 5368 5364 5360 5355 5351 5347 5346 5344 5341 5340 5341 5340 5341 5342 5340 5337 5337 5337 5337 5336 5334 5332 5333 5333 5333 5332 5330 5329 5329 5326 5322 5319 5316 5313 5311 5308 5304 5300 5296 5293 5289 5286
5361 5358 5354 5351 5349 5345 5341 5337 5335 5334 5332 5332 5333 5334 5334 5334 5332 5330 5329 5329 5329 5327 5325 5326 5326 5326 5323 5322 5321 5318 5316 5314 5311 5309 5306 5302 5298 5294 5290 5286 5283 5279 5276
5350 5348 5345 5341 5339 5339 5336 5332 5329 5328 5324 5325 5326 5326 5326 5328 5328 5328 5327 5325 5323 5322 5321 5319 5317 5315 5313 5312 5310 5308 5307 5305 5304 5301 5297 5293 5289 5286 5282 5278 5274 5270 5267
5340 5338 5335 5333 5332 5330 5330 5331 5328 5324 5325 5323 5322 5321 5322 5322 5323 5324 5323 5322 5321 5320 5317 5314 5311 5309 5307 5306 5304 5302 5299 5297 5295 5292 5289 5286 5282 5279 5275 5270 5266 5262 5260
5329 5327 5326 5325 5324 5322 5321 5321 5324 5325 5322 5320 5319 5318 5318 5318 5318 5318 5317 5316 5315 5314 5310 5307 5305 5303 5301 5299 5296 5294 5292 5289 5286 5283 5281 5278 5274 5271 5267 5263 5259 5255 5252
5322 5320 5319 5318 5316 5315 5314 5313 5313 5315 5317 5318 5316 5314 5314 5314 5313 5312 5311 5309 5307 5304 5301 5300 5298 5296 5294 5291 5289 5286 5284 5281 5277 5275 5272 5269 5265 5262 5259 5256 5252 5249 5246
5316 5314 5313 5313 5312 5310 5309 5308 5307 5307 5308 5310 5311 5311 5310 5309 5308 5306 5304 5300 5298 5297 5295 5294 5292 5290 5287 5284 5282 5279 5276 5273 5270 5267 5264 5261 5257 5254 5251 5249 5246 5244 5241
5311 5310 5309 5309 5308 5307 5306 5304 5304 5303 5304 5304 5304 5304 5304 5303 5301 5300 5297 5293 5291 5291 5290 5288 5286 5284 5281 5278 5275 5272 5269 5266 5263 5260 5257 5254 5251 5248 5246 5242 5239 5236 5234
5306 5306 5306 5304 5302 5302 5301 5300 5299 5299 5299 5299 5299 5299 5299 5297 5295 5293 5291 5289 5286 5285 5284 5282 5280 5278 5275 5272 5269 5266 5264 5261 5258 5254 5251 5248 5245 5242 5240 5237 5234 5231 5228
5300 5300 5300 5299 5299 5298 5297 5297 5296 5295 5295 5295 5296 5295 5295 5292 5289 5288 5286 5285 5282 5280 5279 5277 5275 5273 5270 5267 5264 5262 5259 5257 5253 5249 5246 5243 5240 5237 5234 5231 5228 5225 5222
5296 5296 5295 5295 5294 5295 5294 5293 5292 5291 5291 5291 5291 5291 5290 5288 5285 5284 5282 5280 5278 5276 5274 5272 5270 5268 5265 5263 5260 5257 5255 5253 5250 5245 5241 5238 5235 5233 5230 5227 5224 5221 5219
5292 5291 5290 5291 5290 5290 5289 5289 5288 5288 5288 5288 5287 5286 5285 5283 5281 5280 5278 5276 5274 5272 5270 5268 5266 5264 5262 5259 5257 5255 5252 5250 5246 5243 5239 5235 5233 5230 5227 5224 5222 5219 5216
5287 5286 5286 5286 5286 5285 5285 5285 5285 5285 5285 5284 5284 5283 5281 5279 5278 5276 5274 5272 5269 5268 5266 5264 5263 5261 5259 5257 5255 5252 5251 5249 5246 5242 5237 5234 5231 5228 5225 5222 5220 5217 5214
5282 5281 5281 5282 5282 5281 5281 5281 5282 5282 5281 5281 5280 5279 5277 5276 5274 5272 5270 5268 5266 5264 5263 5261 5259 5258 5256 5255 5253 5252 5251 5249 5247 5243 5238 5234 5230 5227 5224 5222 5219 5216 5213